MPEC 2002-G23 : 2002 GH1

The following Minor Planet Electronic Circular may be linked-to from your own Web pages, but must not otherwise be redistributed electronically.


Read MPEC 2002-G22 Read MPEC 2002-G24


M.P.E.C. 2002-G23                                Issued 2002 Apr. 5, 18:36 UT

     The Minor Planet Electronic Circulars contain information on unusual
         minor planets and routine data on comets.  They are published
   on behalf of Commission 20 of the International Astronomical Union by the
          Minor Planet Center, Smithsonian Astrophysical Observatory,
                          Cambridge, MA 02138, U.S.A.

             Prepared using the Tamkin Foundation Computer Network

                              MPC@CFA.HARVARD.EDU
          URL http://cfa-www.harvard.edu/iau/mpc.html  ISSN 1523-6714

                                   2002 GH1

Observations:
     K02G01H* C2002 04 04.20852 08 48 28.90 +25 53 44.8          16.0        704
     K02G01H  C2002 04 04.22089 08 48 31.61 +25 54 31.2          16.1        704
     K02G01H  C2002 04 04.23793 08 48 35.34 +25 55 35.2          16.4        704
     K02G01H  C2002 04 04.25374 08 48 38.81 +25 56 34.5          16.2        704
     K02G01H  C2002 04 04.27080 08 48 42.60 +25 57 38.5          16.4        704
     K02G01H  C2002 04 04.97490 08 51 22.18 +26 41 15.1                      557
     K02G01H  C2002 04 04.97618 08 51 22.44 +26 41 19.7                      557
     K02G01H  C2002 04 04.97747 08 51 22.74 +26 41 24.0          16.5 V      557
     K02G01H  C2002 04 04.98420 08 51 24.26 +26 41 49.9          15.6 V      198
     K02G01H  C2002 04 04.98670 08 51 24.80 +26 41 58.4          15.3 V      198
     K02G01H  C2002 04 04.99205 08 51 26.00 +26 42 17.9          16.0 V      046
     K02G01H  C2002 04 04.99262 08 51 26.12 +26 42 19.7                      046
     K02G01H  C2002 04 04.99308 08 51 26.20 +26 42 21.4                      046
     K02G01H  C2002 04 04.99339 08 51 26.29 +26 42 21.6          15.4 V      198
     K02G01H  C2002 04 04.99353 08 51 26.32 +26 42 23.0                      046
     K02G01H  C2002 04 04.99407 08 51 26.44 +26 42 25.0                      046
     K02G01H  C2002 04 04.99841 08 51 27.41 +26 42 39.6          15.3 V      198
     K02G01H  C2002 04 05.00438 08 51 28.89 +26 43 02.2          16.2 R      636
     K02G01H  C2002 04 05.00624 08 51 29.36 +26 43 09.4          16.2 R      636
     K02G01H  C2002 04 05.00811 08 51 29.66 +26 43 16.3          16.2 R      636
     K02G01H  C2002 04 05.18397 08 52 10.33 +26 54 07.5                      670
     K02G01H  C2002 04 05.20003 08 52 13.90 +26 55 06.0          15.7 R      670
     K02G01H  C2002 04 05.21207 08 52 16.53 +26 55 49.9                      670
     K02G01H  C2002 04 05.22231 08 52 18.42 +26 56 23.7          15.8 R      649
     K02G01H  C2002 04 05.22396 08 52 18.79 +26 56 29.8          15.8 R      649
     K02G01H  C2002 04 05.22544 08 52 19.11 +26 56 35.1          15.8 R      649
     K02G01H  C2002 04 05.22691 08 52 19.44 +26 56 40.4          16.0 R      649
     K02G01H  C2002 04 05.27303 08 52 30.02 +26 59 29.8                      670

Observer details:
046 Klet.  Observers J. Ticha, M. Tichy.  0.57-m f/5.2 reflector + CCD.
198 Wildberg.  Observer R. Apitzsch.  0.235-m Schmidt-Cassegrain + CCD.
557 Ondrejov.  Observers L. Sarounova, M. Wolf.  0.65-m f/3.6 reflector + CCD.
636 Essen.  Observer T. Payer.  0.32-m f/5.7 reflector + CCD.
649 Powell Observatory, Louisburg.  Observers K. Smalley, R. Fredrick,
    R. Trentman.  0.75-m Newtonian + CCD.
670 Camarillo.  Observer J. E. Rogers.  0.30-m f/6.7 Helin Telescope + CCD.
704 Lincoln Laboratory ETS, New Mexico.  Observers M. Blythe, F. Shelly,
    M. Bezpalko, R. Huber, L. Manguso, S. Adams, J. Piscitelli.  Measurers
    J. Stuart, R. Sayer, J. B. Evans, H. Viggh.  1.0-m f/2.15 reflector + CCD.

Orbital elements:
2002 GH1
Epoch 2002 Mar. 27.0 TT = JDT 2452360.5                 MPC
M   2.32450              (2000.0)            P               Q
n   0.26404952     Peri.  350.18139     -0.95056579     -0.29753750
a   2.4062780      Node   170.88826     +0.30909811     -0.93401874
e   0.4873049      Incl.   34.13365     +0.02971582     +0.19768771
P   3.73           H   15.6           G   0.15
From 28 observations 2002 Apr. 4-5.

Ephemeris:
2002 GH1                 a,e,i = 2.41, 0.49, 34                  q = 1.2337
Date    TT    R. A. (2000) Decl.     Delta      r     Elong.  Phase     V
2002 03 27    08 18.86   +15 54.7    0.407    1.237   117.1    45.9    15.9
2002 04 06    08 55.28   +27 42.8    0.462    1.250   112.1    47.8    16.2
2002 04 16    09 34.32   +35 32.1    0.539    1.272   107.2    48.9    16.6
2002 04 26    10 13.57   +39 59.7    0.630    1.302   103.0    48.9    17.0
2002 05 06    10 50.99   +42 00.4    0.728    1.339    99.6    48.0    17.3
2002 05 16    11 25.54   +42 18.2    0.830    1.382    96.8    46.6    17.7
2002 05 26    11 56.99   +41 25.3    0.935    1.430    94.4    44.9    17.9
2002 06 05    12 25.52   +39 43.8    1.041    1.482    92.3    43.2    18.2
2002 06 15    12 51.61   +37 28.4    1.149    1.538    90.3    41.3    18.5
2002 06 25    13 15.78   +34 50.1    1.258    1.596    88.5    39.6    18.7
2002 07 05    13 38.43   +31 57.3    1.369    1.655    86.6    37.8    18.9
2002 07 15    13 59.98   +28 56.0    1.482    1.716    84.6    36.1    19.1
2002 07 25    14 20.72   +25 51.4    1.599    1.778    82.4    34.5    19.3
2002 08 04    14 40.86   +22 47.8    1.719    1.839    80.1    32.9    19.5
2002 08 14    15 00.59   +19 48.6    1.842    1.901    77.5    31.4    19.7
2002 08 24    15 20.04   +16 56.7    1.969    1.963    74.8    29.8    19.8
2002 09 03    15 39.29   +14 14.4    2.099    2.024    71.7    28.2    20.0
2002 09 13    15 58.41   +11 43.5    2.232    2.084    68.4    26.7    20.1
2002 09 23    16 17.44   +09 25.5    2.367    2.144    64.9    25.1    20.3
2002 10 03    16 36.38   +07 21.3    2.503    2.202    61.2    23.5    20.4
2002 10 13    16 55.26   +05 31.5    2.638    2.260    57.3    21.8    20.5

Timothy B. Spahr             (C) Copyright 2002 MPC           M.P.E.C. 2002-G23

Read MPEC 2002-G22 Read MPEC 2002-G24


Our Web policy. Index to the CBAT/MPC/ICQ pages.

MPC